User: anonymous   Login
Location: Unspecified
(0.0000°N, 0.0000°E)
Time: 15:47:28
(UTC+00:00)
Language:

Kosmos-2315 - Orbit

View from above orbital plane
View from above orbital plane
View from above satellite
View from above satellite

Ground track
Ground track

The orbit data is extracted from the following two-line orbital elements,

1 23603U 95032A   18197.65273223 +.00000054 +00000-0 +42119-4 0  9999
2 23603 082.9030 238.4520 0030209 333.3306 140.9133 13.72846946153793
Epoch (UTC): 16 July 2018 15:39:56
Eccentricity: 0.0030209
inclination: 82.9030°
perigee height: 967 km
apogee height: 1011 km
right ascension of ascending node: 238.4520°
argument of perigee: 333.3306°
revolutions per day: 13.72846946
mean anomaly at epoch: 140.9133°
orbit number at epoch: 15379

The dashed part of the orbit path shows where the satellite is in the earth's shadow,  

DLR